552  
SXUS52 KTAE 190815  
OSOTAE  
OSOTAE  
NORTH FLORIDA/SOUTH ALABAMA/SOUTHWEST GEORGIA WEATHER ROUNDUP  
NATIONAL WEATHER SERVICE TALLAHASSEE FLORIDA  
400 AM EDT FRI APR 19 2019  
 
NOTE: "FAIR" INDICATES FEW OR NO CLOUDS BELOW 12,000 FEET WITH NO  
SIGNIFICANT WEATHER AND/OR OBSTRUCTIONS TO VISIBILITY.  
 
!FLZ017-115-028-034-025-190900   
..NORTH FLORIDA
 
 
 
CITY SKY/WX TMP DP RH WIND PRES REMARKS  
TALL INTL ARPT FAIR 74 70 87 S13G23 29.69F  
FSU LOVE BLDG N/A N/A N/A N/A MISG N/A  
APALACHICOLA CLOUDY 73 70 90 S23G31 29.68F  
PERRY FAIR 75 71 86 S17G28 29.75F  
CROSS CITY MOCLDY 73 70 89 S10 29.78F  
JACKSONVILLE LGT RAIN 72 69 90 S18G25 29.82S  

 
 
!FLZ112-006-005-002-011-190900   
..FLORIDA PANHANDLE
 
 
 
CITY SKY/WX TMP DP RH WIND PRES REMARKS  
MARIANNA MOCLDY 75 70 84 S22G32 29.63F  
BONIFAY NOT AVBL  
PANAMA CITY NW LGT RAIN 75 72 90 S22G31 29.65S  
TYNDALL AFB CLOUDY 73 72 94 S21G29 29.65F FOG  
TYND DRONE APT NOT AVBL  
DE FUNIAK SPR TSTM 72 70 95 S21G30 29.61S  
EGLIN AFB LGT RAIN 73 73 100 S24G35 29.60F FOG  
DESTIN LGT RAIN 73 71 93 S12G26 29.60S  
HURLBURT LGT RAIN 70 66 88 SW26G47 29.59S FOG  
CRESTVIEW LGT RAIN 73 70 90 S14G29 29.59F FOG  
PENSACOLA HVY RAIN 70 70 100 W15G28 29.59S FOG  

 
 
!ALZ063-066-190900   
..SOUTH ALABAMA
 
 
 
CITY SKY/WX TMP DP RH WIND PRES REMARKS  
DOTHAN CLOUDY 76 67 73 S23G38 29.62F  
OZARK CAIRNS CLOUDY 73 70 88 S25G37 29.56S  
FT RUCKER HELI LGT RAIN 73 71 91 S21G31 29.57R  
RUCKER HELI 3 LGT RAIN 72 70 94 SW14G28 29.56S  
RUCKER HELI 2 LGT RAIN 73 72 94 S14G31 29.55S  
FLORALA APT LGT RAIN 73 69 87 S25G35 29.59R  
ANDALUSIA LGT RAIN 75 69 81 S14G30 29.56S  
TROY CLOUDY 69 68 96 W14 29.56F  
EUFALA NOT AVBL  
MOBILE MOCLDY 64 62 93 W7 29.63R  

 
 
!GAZ120>161-190900   
..SOUTHWEST AND SOUTH CENTRAL GEORGIA
 
 
 
CITY SKY/WX TMP DP RH WIND PRES REMARKS  
THOMASVILLE CLOUDY 70 68 94 S16G22 29.70F  
BAINBRIDGE N/A 73 64 73 MISG 29.65F  
MOODY AFB FAIR 70 70 100 S15 29.72S  
VALDOSTA FAIR 71 68 90 S13 29.74F  
MOULTRIE FAIR 70 68 94 S13G22 29.69F  
BLAKELY CLOUDY 72 64 78 S14G24 29.62F  
ALBANY FAIR 73 66 78 S20G25 29.65F  
TIFTON MOCLDY 70 70 100 S16G24 29.68  
FITZGERALD PTSUNNY 70 67 91 S8 29.71F  
CORDELE FAIR 71 65 82 S10G20 29.66F  
AMERICUS FAIR 73 68 83 S12G18 29.64F  
HOMERVILLE NOT AVBL  

 
 
!GMZ750-755-770-775-190900   
..COASTAL AND BUOY OBS
 
 
 
STATION/POSITION TIME TEMP WIND PRES VSBY WAVE  
AIR SEA DIR/SP/G HT/PER  
(UTC) (F) (DEG/KT/KT) (MB) (MI) (FT/S)  
KEATON BEACH 0800 75 170/ 26/ 29 1007.7F  
CEDAR KEY 0800 76 180/ 17/ 20 1008.6F  
C TOWER NOT AVBL  
APALACHICOLA BUO NOT AVBL  
PANAMA CITY BUOY NOT AVBL  
MOBILE BUOY 0800 290/ 23/ 29 1004.7  
ORANGE BCH AL BU 0800 69 240/ 14/ 19 1003.4  

 
 
 
CLICK HERE TO GO TO PREVIOUS BULLETINS.

The Nexlab FL Page
The Nexlab GA Page
The Nexlab AL Page Main Text Page